Location: La Tine
(46.4708°N, 7.0525°E)
Time: 08:09:50
(UTC+00:00)

Meteor 1-24 Rocket - Pass Details

Date: 26 January 2021
Orbit: 790 x 927 km, 81.3° (Epoch: 24 February)

Event Time Altitude Azimuth Distance (km) Brightness Sun altitude
Rises 18:28:10 0° 251° (WSW) 3,289 8.2 -20.7°
Reaches altitude 10° 18:32:38 10° 287° (WNW) 2,361 7.0 -21.5°
Maximum altitude 18:34:05 11° 303° (WNW) 2,291 6.7 -21.7°
Drops below altitude 10° 18:35:32 10° 319° (NW) 2,367 6.5 -22.0°
Sets 18:40:04 0° 355° (N) 3,316 6.8 -22.8°
